This demonstration page uses our WeatherBlox Daily Observations layout. Learn more.

Left ArrowRight Arrow

Hourly Observations for September 19, 2018

Temp ( °F °C ) Dew Point ( °F °C ) Humidity (%) Winds ( mph kmh ) Pressure ( in mb ) Visibility ( mi km ) Precip ( " mm )
12:53 am 00:53 Clear 68 20 66 18.9 93 93 SE 7 11 29.83 1010 10 16 0.00 0.00
1:53 am 01:53 Clear 68 20 67 19.4 96 96 SE 8 13 29.82 1010 10 16 0.00 0.00
2:53 am 02:53 Clear 69 20.6 67 19.4 93 93 SSE 8 13 29.81 1010 10 16 0.00 0.00
3:53 am 03:53 Clear 69 20.6 66 18.9 90 90 SSE 9 15 29.80 1009 10 16 0.00 0.00
4:53 am 04:53 Clear 68 20 66 18.9 93 93 S 8 13 29.79 1009 10 16 0.00 0.00
5:53 am 05:53 Clear 68 20 66 18.9 93 93 S 7 11 29.80 1009 10 16 0.00 0.00
6:53 am 06:53 Clear 68 20 66 18.9 93 93 S 5 7 29.81 1010 10 16 0.00 0.00
7:53 am 07:53 Sunny 69 20.6 66 18.9 90 90 SSE 7 11 29.82 1010 10 16 0.00 0.00
8:53 am 08:53 Sunny 71 21.7 67 19.4 87 87 S 8 13 29.82 1010 10 16 0.00 0.00
9:53 am 09:53 Sunny 76 24.4 69 20.6 79 79 S 7 11 29.82 1010 10 16 0.00 0.00
10:53 am 10:53 Sunny 82 27.8 69 20.6 65 65 SSE 8 13 29.82 1010 10 16 0.00 0.00
11:53 am 11:53 Sunny 86 30 69 20.6 57 57 S 12 19 29.80 1009 10 16 0.00 0.00
12:53 pm 12:53 Sunny 89 31.7 67 19.4 48 48 S 15 24 29.78 1008 10 16 0.00 0.00
1:53 pm 13:53 Partly Cloudy 89 31.7 67 19.4 48 48 S 14 22 29.76 1008 10 16 0.00 0.00
2:53 pm 14:53 Mostly Sunny 90 32.2 67 19.4 47 47 SSE 18 30 29.74 1007 10 16 0.00 0.00
3:53 pm 15:53 Sunny 92 33.3 67 19.4 44 44 S 15 24 29.72 1006 10 16 0.00 0.00
4:53 pm 16:53 Partly Cloudy 91 32.8 67 19.4 45 45 S 14 22 29.71 1006 10 16 0.00 0.00
5:53 pm 17:53 Mostly Sunny 90 32.2 67 19.4 47 47 S 10 17 29.71 1006 10 16 0.00 0.00
6:53 pm 18:53 Sunny 88 31.1 64 17.8 45 45 S 13 20 29.71 1006 10 16 0.00 0.00
7:53 pm 19:53 Clear 85 29.4 64 17.8 50 50 SSE 10 17 29.72 1006 10 16 0.00 0.00
8:53 pm 20:53 Clear 82 27.8 63 17.2 53 53 SSE 10 17 29.74 1007 10 16 0.00 0.00
9:53 pm 21:53 Clear 80 26.7 64 17.8 58 58 SSE 10 17 29.75 1007 10 16 0.00 0.00
10:53 pm 22:53 Clear 79 26.1 64 17.8 60 60 SSE 9 15 29.75 1008 10 16 0.00 0.00
11:53 pm 23:53 Clear 78 25.6 64 17.8 62 62 S 12 19 29.74 1007 10 16 0.00 0.00

Powered by AerisWeather